Location: La Tine
(46.4708°N, 7.0525°E)
Time: 11:10:57
(UTC+00:00)

Meteor 1-24 Rocket - Visible Passes

Search period start: 20 June 2021 00:00
Search period end: 30 June 2021 00:00
Orbit: 790 x 927 km, 81.2° (Epoch: 19 June)

Date Brightness Start Highest point End Pass type
(mag) Time Alt. Az. Time Alt. Az. Time Alt. Az.
20 Jun 4.3 20:51:24 14° SSE 20:55:29 38° E 21:00:32 10° NNE visible
20 Jun 5.1 22:33:54 10° SW 22:38:39 31° WNW 22:43:33 10° N visible
21 Jun 4.3 20:41:25 12° SSE 20:45:54 36° E 20:50:55 10° NNE visible
21 Jun 5.1 22:24:13 10° SW 22:29:02 32° WNW 22:34:00 10° N visible
22 Jun 4.4 20:31:29 10° SSE 20:36:19 35° E 20:41:18 10° NNE visible
22 Jun 5.1 22:14:33 10° SW 22:19:25 34° WNW 22:24:27 10° N visible
23 Jun 4.4 20:21:56 10° SSE 20:26:44 34° E 20:31:42 10° NNE visible
23 Jun 5.1 22:04:53 10° SW 22:09:48 35° WNW 22:14:53 10° N visible
24 Jun 4.5 20:12:23 10° SSE 20:17:09 33° E 20:22:05 10° NNE visible
24 Jun 5.0 21:55:14 10° SW 22:00:11 36° WNW 22:05:20 10° N visible
25 Jun 4.5 20:02:50 10° SSE 20:07:35 32° E 20:12:29 10° NNE visible
25 Jun 5.0 21:45:34 10° SW 21:50:34 37° WNW 21:55:47 10° N visible
26 Jun 5.0 21:35:55 10° SW 21:40:57 38° WNW 21:46:13 10° N visible
27 Jun 5.0 21:26:15 10° SW 21:31:21 40° WNW 21:36:40 10° N visible
28 Jun 4.9 21:16:36 10° SW 21:21:45 41° WNW 21:27:06 10° N visible
29 Jun 4.9 21:06:57 10° SW 21:12:08 43° WNW 21:17:33 10° N visible
